Regional Weather Roundup
Issued by NWS

Home | Current Version | Previous Version | Graphics & Text | Print | Product List | Glossary On
Versions: 1 2 3 4 5 6 7 8 9 10 11 12 13 14 15 16 17 18 19 20 21 22 23 24 25 26 27 28 29 30 31 32 33 34 35 36 37 38 39 40 41 42 43 44 45 46 47 48 49 50
000
ASUS45 KTFX 010510
RWRMT
MONTANA REGIONAL WEATHER ROUNDUP
NATIONAL WEATHER SERVICE GREAT FALLS MT
1100 PM MDT FRI JUL 31 2015

NOTE: "FAIR" INDICATES FEW OR NO CLOUDS BELOW 12000 FEET WITH NO
SIGNIFICANT WEATHER AND/OR OBSTRUCTIONS TO VISIBILITY.

MTZ001>007-043-010600-
WEST OF THE DIVIDE

CITY           SKY/WX    TMP DP  RH WIND       PRES   REMARKS
KALISPELL      CLEAR     62  41  46 CALM      30.01S
MISSOULA       CLEAR     71  36  27 CALM      30.07S
BUTTE          CLEAR     59  37  44 E6        30.27R
MULLAN PASS    CLEAR     72  20  14 VRB3      30.27S
DEER LODGE       N/A     63  39  42 CALM      30.23S
EUREKA           N/A     73  34  23 CALM      29.99R
HAMILTON         N/A     68  37  32 S5        30.11S
LIBBY            N/A     72  36  26 S3        30.00S
PLAINS           N/A     69  41  36 CALM      30.02R
RONAN            N/A     64  43  46 CALM      30.08
$$

MTZ008-052>055-010600-
SOUTHWEST MONTANA

CITY           SKY/WX    TMP DP  RH WIND       PRES   REMARKS
BOZEMAN        CLEAR     65  44  46 S9        30.18R
DILLON         CLEAR     63  38  39 SE3       30.22R
W YELLOWSTONE  CLEAR     50  45  81 S3        30.36S
THREE FORKS      N/A     62  62 100 CALM      30.14
TWIN BRIDGES     N/A     64  38  38 E5        30.18
$$

MTZ009-010-012-014-046-048-049-054-010600-
EAST SLOPES AND CENTRAL MONTANA

CITY           SKY/WX    TMP DP  RH WIND       PRES   REMARKS
CUT BANK       CLEAR     67  33  28 W10       30.05F
GREAT FALLS    CLEAR     64  39  39 SW8       30.06S
MALMSTROM AFB  CLEAR     68  40  35 S9        30.05S
HELENA         CLEAR     73  34  23 E5        30.10F
$$

MTZ011-013-016-021-045-047-050-051-010600-
NORTH CENTRAL MONTANA

CITY           SKY/WX    TMP DP  RH WIND       PRES   REMARKS
HAVRE          CLEAR     69  45  41 NE5       29.99F
LEWISTOWN      CLEAR     64  44  48 SE7       30.14S
CHINOOK          N/A     64  52  63 CALM      29.99S
FORT BENTON      N/A     73  39  29 SW5       30.01S
$$

MTZ017>020-022>027-061-062-010600-
NORTHEAST MONTANA

CITY           SKY/WX    TMP DP  RH WIND       PRES   REMARKS
GLASGOW        CLEAR     70  48  45 N3        29.99S
JORDAN           N/A     73  44  35 N7        30.03R
SIDNEY         CLEAR    N/A N/A N/A CALM      30.00S
WOLF POINT     CLEAR     68  48  48 CALM      29.99S
MALTA            N/A     63  53  69 CALM      29.97
PLENTYWOOD       N/A     64  50  59 SE3       30.05R
POPLAR           N/A     70  50  49 E5        30.00S
$$

MTZ028>42-056>058-010600-
SOUTHCENTRAL AND SOUTHEAST MONTANA

CITY           SKY/WX    TMP DP  RH WIND       PRES   REMARKS
BAKER          CLEAR     67  45  45 SE12      30.05S
BILLINGS       CLEAR     79  37  22 NE6       30.12R
LIVINGSTON     CLEAR     62  35  36 SW3       30.19R
MILES CITY     CLEAR     74  42  31 N9        30.01R
FORSYTH          N/A     73  41  31 CALM      30.03S
LAUREL           N/A     75  32  20 CALM      30.10
ROUNDUP          N/A     74  38  27 CALM      30.02
$$

REGIONAL REPORTS...DAKOTAS

CITY           SKY/WX    TMP DP  RH WIND       PRES   REMARKS
WILLISTON      CLEAR     70  50  49 NE5       30.03R
MINOT          CLEAR     64  54  69 SW5       30.01S
DICKINSON      CLEAR     63  51  65 E9        30.03F
CROSBY         FAIR      57  55  94 CALM      30.05R
BISMARCK       CLEAR     62  57  83 NE3       30.04R
GRAND FORKS    CLEAR     57  52  83 W6        29.97S
FARGO          CLEAR     61  56  83 CALM      29.99S
BUFFALO SD       N/A     70  47  43 S10       30.01S
RAPID CITY     CLEAR     62  55  77 W3        30.13S
$$

REGIONAL REPORTS...WYOMING/IDAHO/WASHINGTON

CITY           SKY/WX    TMP DP  RH WIND       PRES   REMARKS
GILLETTE       CLEAR     74  49  41 S15       30.14S
SHERIDAN       PTCLDY    66  46  48 S3        30.12R
BUFFALO WY     CLEAR     71  39  31 W7        30.21R
CODY           PTCLDY    75  27  16 N5        30.23S
YELLOWSTONE LA   N/A     53  33  46 CALM      30.46S
IDAHO FALLS    CLEAR     60  46  59 CALM      30.19R
SALMON         CLEAR     68  34  28 SE3       30.14R
BOISE          CLEAR     83  41  22 CALM      30.01S
SPOKANE        PTCLDY    85  22  10 SW9       29.97S
$$

REGIONAL REPORTS...ALBERTA

CITY           SKY/WX    TMP DP  RH WIND       PRES   REMARKS
EDMONTON       CLEAR     59  52  77 NE6       29.98R
CALGARY        PTCLDY    73  36  25 W7        30.00S
LETHBRIDGE     CLEAR     61  45  55 SW10      29.97S
MEDICINE HAT   CLEAR     68  48  49 SW3       29.94S
WATERTON GATE    N/A     54  45  71 CALM        N/A
MILK RIVER       N/A     63  41  45 W6          N/A
ONEFOUR          N/A     66  41  39 E9          N/A
$$

REGIONAL REPORTS...SASKATCHEWAN

CITY           SKY/WX    TMP DP  RH WIND       PRES   REMARKS
SWIFT CURRENT  CLEAR     61  52  72 SE10      30.02F
REGINA         CLEAR     57  55  94 SE3       30.03F
SASKATOON      PTCLDY    63  52  67 S7        29.97F
VAL MARIE        N/A     59  55  88 NE8         N/A
ROCKGLEN         N/A     61  50  67 E5          N/A
$$


USA.gov is the U.S. government's official web portal to all federal, state and local government web resources and services.